Погода в Корысти

Украина / Ровненская область     50°36′06″N   26°59′51″E
темп.,
°C
ветер,
м/с
пор.,
м/с
влажн.,
%
обл.,
%
осадки,
мм/ч
давл.,
гПа
погр.,
м
17 сентября, пт
пт1700:00+19ю51057100 0.0 1014299
03:00+17ююв51257100 0.1 1012334
06:00+16ююз3862100 0.1 1011188
09:00+17ю346697 0.6 1010186
12:00+16ю238196 0.4 1009139
15:00+21ю2364100 0.4 1007698
18:00+22св2262100 0.0 1005113
21:00+16с1192100 2.1 100523
18 сентября, сб
сб1800:00+16в1196100 5.3 100527
03:00+16вюв1195100 5.5 100340
06:00+16ю1397100 0.4 1001271
09:00+11зсз71395100 1.4 1004621
12:00+12зсз7118696 0.0 1005669
15:00+12зсз71084100 0.1 1006733
18:00+11з51186100 0.0 1007751
21:00+10з498697 0.0 1008652
19 сентября, вс
вс1900:00+9з488580 0.0 1008552
03:00+9з4883100 0.0 1008615
06:00+8зюз4889100 0.5 1007647
09:00+6зюз5788100 0.9 10081021
12:00+7зюз5890100 0.6 1008674
15:00+7з5889100 0.8 1009782
18:00+6з5891100 0.3 1009908
21:00+5з5894100 0.5 1009836
20 сентября, пн
пн2000:00+6з5996100 0.3 1009635
03:00+6зсз51097100 0.9 1009611
06:00+7зсз71196100 0.6 1010661
09:00+6сз71196100 0.9 1012580
12:00+6зсз61094100 0.2 1014580
15:00+6зсз5992100 0.2 1015635
18:00+6зсз5988100 0.1 1016836
21:00+5зсз5889100 0.1 1017781
21 сентября, вт
вт2100:00+5з5990100 0.0 1017616
03:00+5з5989100 0.1 1017671
06:00+5з5988100 0.1 1017677
09:00+4з6987100 0.1 1017784
12:00+4зсз6992100 0.1 1017823
15:00+4зсз61096100 0.3 1018897
18:00+4зсз61095100 0.2 1018993
21:00+5зсз61091100 0.3 1019964